Temperature
19 17 17 17 18 18 18 18 18 18 19 18 18 17 17 17 17 17 17 17 18 18 18 18 18 17 17 17 17 17 16 16 16 16 16 15 15 15 15 15 15 14 14 14
17 17 18 18 18 18 18 18 18 18 18 18 17 17 17 17 17 17 17 17 18 18 18 17 17 17 17 17 17 17 16 16 16 16 16 15 15 15 15 15 15 14 14 14
18 18 19 19 18 18 18 18 18 18 18 17 18 17 17 17 17 17 17 17 18 17 18 18 18 17 17 17 17 17 16 16 16 16 16 15 15 15 15 15 15 14 14 14
18 18 18 18 18 18 18 18 18 18 17 16 17 16 16 16 16 16 16 17 17 17 18 18 18 17 17 17 17 17 16 16 16 16 15 15 15 15 15 15 14 14 14 14
18 18 18 18 18 18 18 18 17 17 17 16 16 16 15 15 16 16 16 16 17 17 17 18 18 18 18 17 17 17 16 16 16 16 15 15 15 15 15 15 14 14 14 14
17 18 18 18 18 18 17 16 16 14 15 15 16 16 15 14 16 16 15 16 16 17 17 17 17 17 17 17 17 16 16 16 16 16 15 15 15 15 15 15 14 14 14 14
17 17 18 18 18 17 16 15 15 15 14 15 15 15 15 16 15 15 15 16 16 17 17 17 17 17 17 17 16 16 16 16 16 16 15 15 15 15 14 14 14 14 14 14
16 16 17 18 17 17 16 16 15 15 15 14 15 15 15 15 15 16 16 16 16 16 17 17 17 17 17 17 16 16 16 16 15 15 15 15 15 15 14 14 14 14 14 13
15 15 17 18 17 17 16 15 15 14 14 14 14 14 15 15 15 15 15 15 16 16 16 17 17 17 17 16 16 16 16 15 15 15 15 14 14 14 14 14 14 14 13 13
15 15 16 17 17 17 16 14 13 14 14 14 15 15 15 15 14 14 14 15 16 16 16 16 16 16 16 16 16 16 15 15 15 15 14 14 14 14 14 14 14 13 13 13
15 15 15 16 16 16 15 15 13 12 13 13 14 14 15 14 14 14 14 15 16 16 16 16 16 16 16 16 16 15 15 15 15 14 14 14 14 14 14 13 13 13 13 13
13 12 13 15 15 16 16 15 13 14 13 12 13 14 15 14 14 14 14 15 16 16 16 16 16 16 16 16 15 15 15 15 14 14 14 14 14 13 13 13 13 13 13 12
13 13 13 14 15 15 16 15 14 13 12 11 12 14 14 13 14 15 15 15 16 16 15 15 15 15 15 15 15 15 14 14 14 14 14 13 13 13 13 13 13 12 12 12
14 12 13 14 14 14 14 15 14 13 12 12 12 14 14 14 13 14 15 15 15 15 15 15 15 15 15 15 14 14 14 14 14 13 13 13 13 13 13 12 12 12 12 12
13 13 13 13 14 14 14 14 14 14 13 13 13 13 14 13 13 14 14 15 15 15 15 15 15 14 14 14 14 14 14 14 13 13 13 13 12 12 12 12 12 12 11 11
11 13 13 13 14 14 14 14 14 14 14 13 13 13 14 14 14 14 14 14 14 14 15 14 14 14 14 14 14 14 13 13 13 13 12 12 12 12 12 11 11 11 11 11
10 11 12 12 12 13 13 14 14 14 13 13 13 14 13 12 13 13 14 14 14 14 14 14 14 14 14 14 13 13 13 13 12 12 12 12 12 11 11 11 11 11 11 10
10 10 10 10 12 13 14 14 14 14 14 13 13 13 12 13 14 14 14 14 14 14 14 14 14 14 14 13 13 13 13 12 12 12 12 12 11 11 11 11 11 10 10 10
10 10 9 10 11 12 13 13 13 13 13 13 12 12 13 13 13 13 14 15 15 14 14 14 14 14 13 13 13 12 12 12 12 11 11 11 11 11 11 10 10 10 10 10
9 9 9 9 11 12 13 14 14 14 13 13 12 12 12 12 11 12 14 14 14 14 14 14 13 13 13 13 12 12 12 11 11 11 11 11 11 10 10 10 10 10 10 9
10 9 9 9 10 11 12 13 13 13 13 14 13 13 12 12 12 14 14 14 14 14 14 13 13 13 13 12 12 12 11 11 11 11 10 10 10 10 10 10 9 9 9 9
10 9 9 9 10 11 13 12 12 13 14 14 14 14 13 14 14 14 14 14 13 13 13 13 13 12 12 12 11 11 11 11 10 10 10 10 10 10 9 9 9 9 9 9
9 10 9 10 11 12 13 13 14 15 14 15 14 14 14 13 13 13 13 13 13 13 13 12 12 12 11 11 11 11 11 10 10 10 10 9 9 9 9 9 8 8 8 8
9 9 9 9 10 12 13 14 14 15 14 15 14 14 14 13 14 13 13 13 13 12 12 12 12 11 11 11 10 10 10 10 10 9 9 9 9 9 8 8 8 8 8 8
9 8 8 9 9 11 13 14 14 14 14 14 14 14 14 14 13 13 13 12 12 12 12 11 11 11 11 10 10 10 10 9 9 9 9 8 8 8 8 8 7 7 7 7
8 9 9 10 11 11 13 14 14 14 14 14 14 14 14 13 13 13 12 12 12 12 11 11 11 11 10 10 10 10 9 9 9 9 8 8 8 8 8 7 7 7 7 7
Wind_Speed
4 4 2 5 5 4 4 3 3 4 3 3 4 5 6 4 5 6 6 6 7 7 5 3 4 4 4 4 4 5 4 4 4 2 2 2 1 0 0 0 1 1 2 2
5 1 5 3 3 3 3 2 2 2 1 2 2 3 4 3 5 6 7 7 8 6 3 3 4 4 5 5 5 5 5 5 4 3 2 2 1 1 1 0 1 1 1 2
4 3 1 3 2 2 2 4 4 2 2 3 2 4 3 3 2 2 3 4 5 7 7 6 6 6 5 5 6 6 5 5 4 4 3 2 2 2 1 1 0 1 1 2
1 2 2 2 2 3 3 4 3 2 2 2 1 3 6 4 3 2 3 3 4 4 5 5 6 6 6 7 6 6 6 5 4 5 4 4 3 2 2 1 1 1 0 1
2 1 2 2 3 4 3 1 2 2 3 0 1 2 7 2 3 5 4 3 4 4 5 5 6 6 6 6 6 6 5 5 5 5 5 4 2 1 1 0 0 1 1 0
2 1 2 3 0 2 3 5 5 5 4 1 4 4 6 3 5 4 3 2 3 3 3 3 2 3 3 4 4 4 5 4 5 5 5 5 4 3 2 1 1 1 1 1
3 3 2 2 3 3 5 5 3 3 2 5 3 3 6 5 4 5 4 3 2 2 2 2 2 3 3 3 4 4 5 4 4 5 5 5 5 5 4 3 3 1 1 1
1 3 2 1 3 3 3 6 6 4 4 4 1 4 5 3 2 1 2 2 2 1 1 2 2 3 4 4 4 4 5 4 4 5 4 4 4 3 3 3 3 3 2 2
3 4 3 1 1 6 4 3 5 5 2 2 4 5 5 2 3 3 3 3 2 1 1 2 1 2 3 4 4 5 5 4 4 5 4 3 3 3 3 2 2 2 2 2
4 2 3 2 3 3 4 7 5 4 2 3 5 4 4 3 2 0 1 1 1 1 1 0 1 1 2 3 3 4 5 5 4 4 4 4 3 3 3 2 2 2 1 1
3 2 3 2 2 3 3 3 4 4 4 4 3 6 4 6 5 5 4 3 3 3 3 2 1 1 1 1 2 3 3 3 3 3 3 3 3 3 3 2 2 2 1 1
2 4 1 4 4 2 3 5 6 4 3 4 3 6 4 4 4 4 4 3 3 2 2 1 1 0 1 1 1 2 2 3 3 3 3 3 3 3 3 3 2 2 2 1
3 4 2 5 4 2 1 2 3 4 4 4 4 6 3 1 1 2 3 3 2 2 1 0 0 1 1 1 1 1 2 2 2 3 3 3 3 3 4 3 3 2 2 2
4 4 5 6 6 3 3 3 3 4 4 5 7 7 6 4 4 4 3 3 2 2 2 1 1 2 1 1 1 1 1 2 2 3 3 3 3 4 4 4 3 3 3 2
3 3 4 6 5 4 5 6 5 7 8 8 8 8 9 7 6 5 3 2 1 2 2 3 2 2 2 1 1 1 1 2 2 3 2 3 3 3 3 3 3 3 2 2
2 3 1 3 3 4 5 6 7 7 6 7 6 8 7 4 2 2 3 4 3 4 4 3 2 2 2 3 2 2 2 2 2 3 3 2 2 2 2 3 3 2 2 2
2 3 2 3 4 3 5 6 7 5 5 6 8 8 3 2 5 6 6 6 6 6 5 4 3 4 4 4 3 3 3 2 2 2 3 2 2 2 2 2 2 3 3 3
5 4 2 1 2 5 7 3 4 5 5 6 5 5 4 5 5 4 4 6 7 5 4 4 3 3 3 3 3 2 2 2 2 2 3 3 3 2 2 2 2 3 3 3
4 6 3 2 2 7 7 3 4 4 6 5 5 4 2 1 2 3 3 4 6 5 4 4 3 3 2 2 2 3 2 2 2 2 3 4 4 3 3 3 3 3 3 3
4 4 4 3 3 6 6 3 2 2 6 4 4 4 2 3 0 5 3 2 3 3 3 3 2 1 2 2 2 3 3 3 3 4 4 3 3 3 3 4 3 2 2 3
2 2 3 4 5 7 6 2 3 3 7 3 4 5 5 5 5 4 2 1 2 2 2 2 3 2 2 2 3 3 3 4 5 3 2 2 2 3 3 2 2 1 2 1
6 4 5 4 4 7 3 4 5 7 3 3 4 4 5 5 3 2 2 2 2 2 2 2 2 1 1 2 3 3 4 4 3 2 2 2 2 2 2 1 1 1 1 2
6 7 6 7 7 5 3 5 5 3 3 4 4 4 5 4 3 3 3 3 2 2 2 2 3 2 1 2 3 4 4 3 2 2 2 2 2 2 2 2 2 1 1 2
4 2 3 5 7 6 6 6 5 4 5 5 5 5 5 5 5 4 4 3 3 2 2 2 3 2 2 3 3 4 3 2 3 3 3 2 2 2 1 1 2 2 2 2
6 3 3 6 7 6 5 5 5 4 4 3 3 4 6 6 5 5 5 4 4 3 3 3 4 4 4 3 3 3 3 3 3 3 3 2 2 2 2 2 3 3 4 5
5 6 6 7 7 5 7 6 4 4 4 4 4 4 4 5 6 5 5 4 4 3 3 3 3 3 3 3 3 3 3 4 4 3 3 3 2 2 2 2 2 4 4 5
Wind_Direction
45 76 179 206 192 182 161 171 234 247 231 159 203 236 251 226 202 214 215 208 210 217 224 199 187 175 157 155 158 168 163 163 150 134 134 126 171 242 355 11 111 119 118 124
46 293 238 181 159 145 157 180 245 299 344 156 211 256 259 223 216 217 216 213 212 210 210 203 198 188 180 178 180 179 182 176 173 169 154 147 149 173 210 291 57 123 152 145
166 248 201 137 133 130 195 193 207 222 3 34 70 323 296 271 242 229 221 217 214 208 209 208 205 203 197 194 192 191 191 181 173 156 123 91 67 50 44 9 303 308 195 157
222 274 122 128 186 156 237 230 190 162 101 303 104 269 279 266 270 262 250 230 222 218 215 212 208 208 207 205 193 187 185 179 170 157 153 153 159 179 210 219 234 283 268 162
248 195 125 173 226 174 203 92 119 137 137 42 354 198 281 303 260 260 251 236 232 219 210 209 209 210 208 195 185 184 176 175 174 169 170 165 163 181 179 156 166 261 280 249
255 266 181 201 194 138 120 66 56 51 79 262 228 190 273 243 229 240 244 243 242 217 207 206 208 194 193 177 174 173 171 181 178 173 173 174 173 168 158 179 189 250 274 275
346 337 338 107 75 40 79 87 36 1 357 256 240 198 247 256 239 217 220 227 222 194 167 172 178 185 185 171 175 175 175 183 179 174 177 184 186 182 185 192 194 207 235 247
95 294 293 107 158 167 155 138 158 199 227 279 300 232 256 278 276 193 172 160 128 116 157 176 196 194 187 181 176 171 179 183 178 180 186 190 186 184 193 194 193 203 219 228
159 260 309 327 144 137 132 149 161 141 173 260 274 282 298 20 45 74 89 99 128 175 190 196 199 185 183 183 184 180 177 181 183 184 178 182 184 187 188 184 180 196 217 219
149 225 298 319 62 37 141 143 104 122 165 258 285 271 252 260 249 160 122 159 196 201 213 214 212 194 182 189 182 171 172 180 184 179 179 180 183 184 175 155 160 186 204 190
118 151 314 2 172 188 90 100 113 123 153 171 259 272 226 208 204 203 215 210 193 199 210 220 230 215 154 128 137 154 164 165 166 174 176 170 175 171 159 167 188 194 186 169
114 121 252 268 268 220 175 170 149 162 214 184 200 265 280 221 219 209 224 230 203 194 210 222 213 87 111 109 110 161 167 167 173 171 168 174 172 165 168 188 205 199 190 193
127 110 47 346 344 5 116 165 155 137 134 169 192 262 311 311 250 232 226 229 213 186 177 151 160 190 210 184 148 157 177 182 172 157 162 166 173 178 192 204 205 198 200 206
124 134 173 204 227 232 262 246 186 154 175 211 224 251 285 278 266 262 250 232 216 211 196 196 218 232 236 213 170 163 171 177 165 157 164 182 197 201 207 205 200 201 200 203
111 175 216 239 249 237 240 241 217 209 204 208 234 236 254 241 230 234 236 225 200 214 217 220 221 228 228 214 188 168 172 166 169 163 177 209 213 206 205 204 208 208 203 212
102 170 199 274 268 257 256 249 230 231 222 228 246 257 256 239 215 229 219 204 217 230 226 231 227 221 222 221 218 198 198 196 174 176 196 211 203 205 214 216 208 202 208 215
143 142 147 262 298 326 265 234 214 214 211 197 225 243 249 230 218 219 215 207 217 229 226 221 220 222 226 224 211 208 213 187 171 197 210 203 195 209 224 218 201 209 214 205
150 138 150 211 30 243 248 240 197 212 238 222 231 246 228 232 239 235 214 206 216 222 223 224 220 222 223 211 203 193 176 168 179 202 221 218 202 208 216 212 213 217 213 211
158 146 143 151 226 275 289 255 188 203 259 228 220 248 260 297 12 313 251 211 213 214 214 214 213 210 201 202 187 160 165 174 188 217 230 230 213 205 203 218 227 223 210 214
83 114 134 152 197 243 255 270 217 155 270 251 203 221 208 114 195 269 275 224 210 208 202 200 190 165 170 205 161 154 179 187 214 227 233 234 218 206 207 216 222 218 209 214
104 96 159 188 227 259 259 273 109 165 253 247 199 207 188 198 222 241 242 230 204 196 192 165 155 173 206 186 152 170 194 215 227 223 216 214 213 210 206 208 210 208 201 201
181 179 193 176 218 255 239 143 185 225 246 211 204 210 203 221 245 242 220 213 200 181 165 159 158 193 220 178 159 188 228 234 217 191 192 203 207 203 181 168 197 195 179 185
200 196 194 198 222 249 225 225 244 221 223 224 210 222 197 204 229 232 221 215 217 207 188 174 168 180 232 208 175 199 235 223 191 181 199 204 191 190 174 175 188 200 195 200
259 196 194 254 269 271 271 268 264 235 236 238 219 207 193 206 220 222 216 211 205 202 193 177 165 181 231 239 220 212 216 197 179 195 210 201 189 198 196 199 201 206 218 222
239 196 219 256 275 298 285 257 255 255 250 241 232 216 207 205 219 216 212 209 204 200 193 184 186 201 222 227 232 221 195 174 178 200 214 212 206 206 220 228 225 223 231 226
223 203 206 240 246 238 266 276 264 238 240 234 226 238 232 211 215 214 210 208 203 200 189 190 198 206 220 218 225 230 203 180 180 199 208 211 210 216 221 229 267 259 248 255
Height
1505 1511 1516 1514 1514 1515 1518 1522 1525 1521 1515 1518 1521 1521 1518 1517 1517 1518 1518 1519 1520 1522 1524 1525 1527 1528 1530 1531 1532 1533 1534 1535 1536 1536 1536 1537 1537 1538 1538 1538 1538 1539 1539 1539
1511 1514 1510 1509 1511 1514 1518 1522 1523 1519 1515 1518 1521 1520 1517 1516 1516 1516 1517 1518 1519 1521 1522 1524 1525 1527 1528 1529 1531 1532 1533 1533 1534 1535 1536 1536 1537 1537 1538 1538 1538 1538 1538 1538
1513 1511 1507 1509 1512 1516 1518 1521 1521 1521 1518 1518 1521 1524 1519 1516 1515 1515 1516 1516 1517 1519 1520 1521 1523 1524 1526 1527 1529 1530 1531 1532 1533 1534 1535 1536 1536 1537 1537 1537 1537 1537 1538 1538
1511 1508 1508 1511 1513 1514 1520 1514 1516 1518 1525 1531 1527 1537 1523 1518 1516 1515 1515 1515 1516 1517 1518 1519 1521 1522 1524 1525 1527 1528 1529 1531 1532 1533 1534 1534 1535 1535 1535 1536 1536 1537 1537 1537
1511 1508 1509 1512 1511 1511 1514 1512 1515 1519 1524 1532 1530 1536 1529 1519 1518 1515 1514 1513 1514 1515 1516 1517 1518 1520 1522 1523 1525 1526 1527 1529 1530 1531 1532 1533 1534 1534 1535 1535 1535 1536 1536 1536
1509 1507 1507 1508 1508 1509 1512 1516 1520 1526 1531 1539 1531 1535 1531 1523 1516 1513 1512 1512 1512 1513 1514 1515 1516 1518 1519 1521 1523 1524 1525 1527 1528 1529 1530 1531 1532 1533 1534 1534 1534 1534 1534 1534
1513 1509 1507 1507 1511 1512 1515 1526 1539 1541 1546 1542 1529 1531 1528 1514 1511 1510 1510 1510 1511 1511 1512 1513 1514 1516 1517 1519 1520 1522 1523 1524 1526 1527 1528 1529 1530 1531 1532 1532 1532 1533 1533 1533
1522 1522 1510 1508 1510 1515 1517 1523 1540 1546 1548 1542 1531 1532 1521 1511 1508 1508 1509 1510 1510 1511 1511 1512 1513 1514 1515 1517 1518 1520 1521 1522 1524 1525 1526 1528 1529 1530 1530 1531 1531 1531 1531 1531
1523 1522 1509 1507 1507 1511 1519 1523 1524 1536 1539 1542 1536 1528 1516 1510 1509 1508 1508 1509 1510 1510 1511 1512 1513 1513 1514 1515 1517 1518 1519 1520 1522 1523 1524 1526 1527 1528 1528 1529 1529 1529 1529 1529
1515 1521 1513 1509 1508 1510 1513 1519 1530 1536 1543 1545 1537 1530 1524 1514 1511 1510 1509 1509 1509 1510 1511 1512 1513 1513 1513 1515 1516 1517 1518 1519 1520 1521 1522 1524 1524 1525 1526 1527 1527 1527 1528 1528
1513 1521 1519 1514 1514 1515 1518 1521 1526 1534 1537 1544 1543 1533 1512 1510 1508 1508 1508 1507 1508 1509 1510 1511 1512 1513 1513 1514 1514 1515 1516 1517 1518 1519 1520 1521 1522 1523 1524 1524 1525 1525 1525 1526
1514 1522 1526 1518 1511 1510 1512 1516 1523 1533 1535 1538 1541 1532 1507 1506 1505 1506 1506 1507 1507 1509 1510 1510 1511 1512 1512 1512 1513 1514 1514 1515 1516 1517 1518 1519 1520 1520 1521 1522 1522 1523 1523 1523
1514 1522 1530 1525 1521 1514 1513 1514 1517 1524 1533 1539 1539 1527 1507 1505 1505 1505 1506 1506 1507 1508 1509 1509 1510 1510 1510 1511 1511 1512 1512 1513 1514 1515 1516 1516 1517 1518 1519 1519 1520 1520 1520 1520
1510 1519 1526 1528 1523 1518 1516 1515 1516 1521 1531 1533 1528 1519 1509 1506 1505 1505 1505 1505 1505 1506 1507 1508 1508 1509 1509 1509 1510 1510 1511 1511 1512 1513 1513 1514 1515 1516 1516 1517 1517 1517 1517 1517
1509 1517 1517 1516 1513 1513 1513 1512 1514 1515 1517 1522 1516 1514 1506 1504 1503 1503 1503 1504 1504 1505 1506 1506 1507 1507 1508 1508 1508 1508 1509 1509 1510 1510 1511 1512 1513 1513 1514 1514 1514 1514 1514 1514
1510 1515 1515 1515 1512 1511 1511 1509 1509 1509 1509 1511 1510 1508 1500 1500 1501 1501 1501 1502 1502 1503 1503 1504 1505 1505 1506 1506 1506 1506 1507 1507 1508 1508 1509 1509 1510 1510 1511 1511 1511 1511 1511 1511
1513 1515 1519 1521 1516 1512 1513 1505 1505 1505 1503 1505 1506 1502 1498 1498 1498 1498 1498 1499 1499 1500 1501 1502 1503 1503 1504 1504 1504 1504 1505 1505 1506 1506 1506 1507 1507 1507 1507 1508 1508 1508 1508 1508
1511 1516 1521 1523 1519 1520 1506 1497 1497 1499 1498 1498 1497 1496 1495 1494 1494 1495 1495 1496 1496 1498 1499 1500 1501 1501 1502 1502 1502 1502 1503 1503 1503 1504 1504 1504 1504 1504 1504 1505 1505 1505 1505 1505
1506 1512 1521 1524 1523 1516 1503 1497 1497 1498 1497 1493 1494 1493 1493 1493 1493 1493 1493 1494 1495 1496 1497 1498 1499 1500 1500 1500 1500 1500 1500 1501 1501 1501 1501 1501 1501 1501 1501 1501 1501 1501 1502 1502
1508 1510 1518 1522 1520 1517 1501 1493 1491 1495 1496 1490 1490 1490 1491 1492 1497 1493 1491 1492 1493 1495 1496 1496 1497 1497 1498 1498 1498 1498 1498 1498 1498 1498 1499 1499 1498 1498 1498 1498 1498 1498 1498 1498
1511 1514 1518 1520 1518 1508 1495 1491 1492 1502 1497 1487 1487 1487 1489 1489 1490 1490 1490 1491 1492 1493 1494 1494 1495 1495 1496 1496 1496 1495 1495 1495 1496 1496 1496 1496 1495 1495 1495 1495 1495 1495 1495 1495
1508 1512 1515 1517 1515 1507 1490 1491 1493 1490 1485 1484 1484 1485 1486 1487 1487 1488 1488 1489 1489 1490 1491 1492 1492 1493 1493 1493 1493 1493 1492 1493 1493 1493 1492 1492 1492 1492 1492 1492 1492 1492 1491 1491
1502 1501 1502 1502 1499 1489 1486 1486 1485 1484 1483 1482 1483 1483 1484 1485 1485 1486 1486 1487 1488 1488 1488 1489 1489 1490 1490 1490 1490 1490 1490 1490 1489 1489 1489 1489 1489 1488 1488 1488 1488 1488 1488 1488
1497 1495 1496 1496 1489 1485 1484 1483 1482 1482 1481 1480 1481 1481 1482 1482 1482 1483 1484 1484 1485 1485 1486 1486 1487 1487 1487 1487 1487 1487 1487 1487 1486 1486 1486 1486 1485 1485 1485 1485 1485 1485 1484 1484
1492 1493 1493 1491 1485 1482 1480 1480 1479 1479 1478 1478 1478 1479 1479 1479 1479 1480 1480 1481 1482 1482 1483 1483 1484 1484 1484 1484 1484 1484 1484 1484 1483 1483 1483 1482 1482 1482 1482 1482 1482 1481 1481 1480
1487 1487 1488 1486 1481 1480 1478 1477 1476 1476 1475 1475 1475 1475 1476 1477 1477 1477 1477 1478 1479 1479 1480 1480 1480 1481 1481 1481 1481 1481 1481 1480 1480 1480 1479 1479 1479 1478 1478 1478 1478 1477 1477 1477